World > North America > United States > South Carolina

Hourly Windsor, SC Regional Weather

Feedback E-mail the Weather

Latest News

Windsor, SC Weather Maps

°F °C°F °C
Windsor Weather Map
UTC Time: 5/26/2022, 15:31
Your Time:

Windsor, SC Regional Weather

Expires:202205261600;;610549
ASUS42 KCHS 261528
RWRCHS

Regional Weather Roundup
National Weather Service Charleston SC
1100 AM EDT THU MAY 26 2022

NOTE: "fair" indicates few or no clouds below 12,000 feet with no
significant weather and/or obstructions to visibility.

Not all stations are quality controlled. Use data with caution,
especially dewpoint observations.


SCZ027-030-031-034>040-042>050-261600-
...Southeast South Carolina...
  
CITY           SKY/WX    TMP DP  RH WIND       PRES   REMARKS
N Charleston   PTSUNNY   84  70  62 SE17      30.16F                  
Waterfront Prk   N/A     80  72  76 E10       30.03S                  
Mount Pleasant PTSUNNY   82  75  78 E10       30.16F                  
Johns Island   PTSUNNY   81  72  74 SE10      30.17S                  
Pinopolis        N/A     81  73  78 SE5       30.11F                  
Moncks Corner  CLOUDY    81  70  69 SE6       30.16F                  
Summerville    PTSUNNY   84  72  65 S8G14     30.14F                  
Beaufort MCAS  PTSUNNY   85  71  63 SE13G21   30.14F HX  90           
Beaufort Arpt  PTSUNNY   82  70  65 S9G18     30.14F                  
Hilton Head Is MOSUNNY   82  72  69 S12       30.16F                  
Walterboro     PTSUNNY   84  70  61 SE13G18   30.15F                  
Allendale      PTSUNNY   82  72  69 S7G14     30.12F                  

...Southern Midlands and Pee Dee...
  
CITY           SKY/WX    TMP DP  RH WIND       PRES   REMARKS
Georgetown     CLOUDY    72  68  88 E7        30.21S                  
Kingstree      CLOUDY    79  64  61 SE7       30.17F                  
Orangeburg     CLOUDY    80  71  74 SE10G17   30.15F                  
Barnwell       FAIR      82  70  65 S10       30.13F                  
Aiken          FAIR      81  67  61 S15       30.14F                  
Manning        CLOUDY    79  70  73 SE7       30.16F                  
Columbia       PTSUNNY   78  70  76 E17       30.14F                  
Sumter         PTSUNNY   75  68  78 E9        30.16F                  
Florence       CLOUDY    77  66  68 SE10      30.20F                  
Myrtle Beach   CLOUDY    73  68  84 E8        30.21F                  
N Myrtle Beach CLOUDY    73  66  78 E7        30.21F                  

$$
 

SKY/WX - Weather  TMP - Temperature  DP - Dew Point  RH - Humidity
WIND - Wind Direction/Speed PRES - Barometric Pressure VSB - Visibility
WCI - Wind Chill Index E13G22 Wind - East Wind 13 mph/Gusts of 22 mph

Trending Headlines

Windsor Radar Loop



Windsor Quick Facts


National Two Day Weather Forecast


E-mail the Windsor Weather Forecast

Voice your opinion or tell us about page issues...